www.pogodaiklimat.ru
ПОГОДА в Бури-Рам
Время
(UTC), дата
00 25.11
03 25.11
06 25.11
09 25.11
12 25.11
15 25.11
18 25.11
21 25.11
00 26.11
03 26.11
06 26.11
09 26.11
12 26.11
15 26.11
18 26.11
21 26.11
00 27.11
03 27.11
06 27.11
09 27.11
12 27.11
15 27.11
18 27.11
21 27.11
00 28.11
03 28.11
06 28.11
09 28.11
12 28.11
15 28.11
18 28.11
21 28.11
00 29.11
03 29.11
06 29.11
09 29.11
12 29.11
15 29.11
18 29.11
21 29.11
00 30.11
03 30.11
06 30.11
09 30.11
12 30.11
15 30.11
18 30.11
21 30.11
00 1.12
03 1.12
06 1.12
09 1.12
12 1.12
15 1.12
18 1.12
21 1.12
Ветер
(напр.,м/с)
Видим. Явления Облачность Т
(С)
Тd
(С)
f
(%)
Тe
(С)
Тes
(С)
Комфортность P
(гПа)
Po
(гПа)
Тmin
(С)
Tmax
(С)
R
(мм)
R24
(мм)
S
(см)
СВ 9 10 км 4/0
[Ci fib]
+22.6 +20.8 90 +30 +30 очень
душно
1014.2 992.9 +21.9
В 10 10 км 5/0
[Ci fib]
+27.8 +20.9 66 +35 +35 очень
душно
1014.8 993.9
СВ 10 10 км 4/4 1000 м
[Cu hum Ci fib]
+31.0 +20.7 54 +38 +38 очень
душно
1011.3 990.6
В 10 10 км 6/6 1000 м
[Cu hum]
+30.9 +20.0 52 +37 +37 очень
душно
1009.8 989.2
СВ 3 9000 м дымка 4/1 1500 м
[Cu hum Ac trans]
+26.9 +21.8 74 +35 +35 очень
душно
1011.9 991.0 +32.1
СВ 5 9000 м дымка 3/0
[Ci fib]
+25.0 +21.8 82 +32 +32 очень
душно
1014.2 993.1
СВ 9 9000 м дымка 3/0
[Ci ing]
+24.0 +20.5 81 +30 +30 очень
душно
1013.3 992.2
СВ 8 9000 м дымка 3/0
[Ci fib]
+22.7 +20.4 87 +29 +29 очень
душно
1013.2 991.9
В 6 9000 м дымка 3/0
[Ci fib]
+22.5 +20.5 88 +29 +29 очень
душно
1015.2 993.9 +21.7
В 12 10 км 3/0
[Ci fib]
+27.6 +21.0 67 +35 +35 очень
душно
1016.1 995.2
СВ 13 10 км 5/3 1000 м
[Cu hum Ci fib]
+30.4 +19.6 52 +36 +36 очень
душно
1012.5 991.9
СВ 11 10 км 5/3 1000 м
[Cu hum Ci fib]
+29.9 +20.7 58 +37 +37 очень
душно
1011.1 990.4
СВ 6 9000 м дымка 3/1 1000 м
[Cu hum Ci fib]
+26.4 +21.3 74 +34 +34 очень
душно
1013.5 992.5 +31.4
СВ 10 9000 м дымка 3/0
[Ci fib]
+25.3 +20.6 75 +31 +31 очень
душно
1015.2 994.1
СВ 8 9000 м дымка ясно +23.6 +20.2 81 +29 +29 душно 1014.2 993.0
СВ 4 9000 м дымка ясно +21.4 +20.5 95 +27 +27 душно 1013.6 992.2
СВ 8 9000 м дымка ясно +22.8 +20.6 87 +30 +30 очень
душно
1015.1 993.8 +21.2
СВ 12 10 км 3/1 1000 м
[Cu hum Ci fib]
+28.3 +19.4 59 +34 +34 очень
душно
1016.3 995.4
В 12 10 км 4/3 1000 м
[Cu med, cong Ci fib]
+30.5 +19.9 53 +37 +37 очень
душно
1013.6 992.9
СВ 12 10 км 4/3 1000 м
[Cu med, cong Ci fib]
+30.2 +19.7 53 +36 +36 очень
душно
1012.1 991.4
СВ 2 10 км 3/0
[As op Ci fib]
+25.4 +20.2 73 +31 +31 очень
душно
1014.4 993.3 +31.6
СВ 9 9000 м дымка 3/0
[As trans Ci fib]
+24.8 +19.2 71 +30 +30 душно 1016.7 995.5
СВ 8 9000 м дымка 3/0
[Ci fib]
+22.7 +18.4 77 +28 +28 душно 1016.2 994.9
С 5 9000 м дымка ясно +21.2 +18.5 85 +26 +26 душно 1015.1 993.7
СВ 8 8000 м дымка ясно +21.3 +18.1 82 +26 +26 душно 1016.2 994.8 +20.6
СВ 16 9000 м мгла ясно +26.9 +18.8 61 +32 +32 очень
душно
1017.1 996.1
СВ 13 9000 м мгла 3/3 1000 м
[Cu hum]
+29.2 +19.6 56 +35 +35 очень
душно
1013.1 992.3
В 12 9000 м мгла 3/3 1000 м
[Cu hum]
+28.9 +20.1 59 +35 +35 очень
душно
1012.4 991.6
СВ 9 8000 м дымка 3/1 1000 м
[Cu hum Cs]
+25.4 +19.5 70 +31 +31 очень
душно
1014.7 993.6 +30.4
С 7 8000 м дымка 3/0
[Cs]
+23.8 +19.1 75 +29 +29 душно 1016.4 995.1
СВ 10 8000 м дымка ясно +22.7 +17.7 73 +28 +28 душно 1015.7 994.4
СВ 5 9000 м дымка 5/0
[As op Ci fib]
+21.6 +18.2 81 +26 +26 душно 1014.8 993.4
СВ 8 9000 м дымка 5/0
[As op Ci fib]
+21.4 +17.8 80 +26 +26 душно 1015.7 994.4 +20.8
СВ 18 9000 м мгла 6/0
[As op Ci fib]
+26.7 +17.7 58 +31 +31 душно 1016.8 995.8
СВ 12 10 км 4/0
[As op Ci fib]
+29.2 +17.9 51 +34 +34 очень
душно
1013.5 992.7
СВ 11 10 км 6/3 1000 м
[Cu hum As op Ci fib]
+28.6 +18.3 54 +33 +33 очень
душно
1012.2 991.4
СВ 8 9000 м дымка 5/3 1000 м
[Cu hum As op Ci fib]
+25.6 +18.9 66 +31 +31 очень
душно
1014.4 993.3 +30.3
СВ 13 8000 м дымка 8/0
[Ac und Ci fib]
+23.6 +17.7 70 +28 +28 душно 1016.8 995.5
СВ 12 8000 м дымка 8/0
[Ac und Ci fib]
+22.0 +16.2 70 +26 +26 душно 1016.1 994.7
С 8 6000 м дымка 6/0
[Ac und Ci fib]
+20.4 +16.1 76 +23 +23 комфорт 1015.5 994.0
С 5 8000 м дымка 3/0
[Ac trans Ci fib]
+19.7 +16.5 82 +22 +22 комфорт 1016.8 995.3 +19.0
СВ 14 10 км 3/0
[Ac trans Ci fib]
+25.1 +16.5 59 +29 +29 душно 1017.2 996.0
С 10 10 км 5/1 1000 м
[Cu hum Ac und Ci fib]
+27.7 +17.6 54 +32 +32 очень
душно
1013.8 992.9
СВ 12 10 км 6/1 1000 м
[Cu hum Ac und Ci fib]
+27.8 +18.6 57 +33 +33 очень
душно
1012.5 991.7
СВ 7 9000 м дымка 5/0
[Ac trans Ci fib]
+24.9 +18.8 69 +30 +30 душно 1014.8 993.7 +28.9
СВ 12 8000 м дымка 4/0
[Ac trans Ci fib]
+23.3 +16.8 67 +28 +28 душно 1016.8 995.5
СВ 14 8000 м дымка 8/0
[Ac und Ci fib]
+21.9 +16.3 71 +26 +26 душно 1016.5 995.1
С 8 7000 м дымка 8/0
[Ac und Ci fib]
+20.7 +16.4 76 +24 +24 комфорт 1015.8 994.3
С 7 8000 м дымка 9/0
[Ac und Ci fib]
+20.4 +16.1 76 +23 +23 комфорт 1017.3 995.8 +19.7
З 3 10 км 8/1 1000 м
[Cu hum Ac As Ci fib]
+23.8 +16.8 65 +27 +32 жарко 1018.1 996.8
СВ 11 10 км 9/1 1000 м
[Cu hum As op Ci fib]
+26.6 +18.4 61 +31 +32 душно 1015.1 994.1
СВ 9 10 км 9/1 1000 м
[Cu hum As op Ci fib]
+27.0 +19.3 63 +33 +33 очень
душно
1013.2 992.2
СВ 2 9000 м дымка 8/0
[Ac As Ci fib]
+24.3 +20.5 79 +30 +30 очень
душно
1014.3 993.2 +27.6
СВ 2 7000 м дымка 8/0
[Ac trans Ci fib]
+23.5 +19.3 77 +28 +28 душно 1015.2 994.0
З 2 8000 м дымка 8/0
[Ac trans Ci fib]
+22.5 +18.0 76 +28 +28 душно 1015.3 994.0
СЗ 1 8000 м дымка 8/0
[Ac trans Ci fib]
+21.6 +17.9 79 +26 +26 душно 1014.5 993.2
Местоположение метеостанции Бури-Рам (Таиланд): широта 15.23 долгота 103.25 высота над уровнем моря 184 м.
В архиве по умолчанию представлена погода в Бури-Рам за последнюю неделю. Архивные данные за месяц целиком и за предыдущие месяцы, начиная с января 2011 года, Вы можете получить, выбрав интересующий диапазон дат из раскрывающегося списка и нажав кнопку "Найти!".
*Определитесь, кто Вы:
Внимание! Время в таблицах - всемирное. Для получения местного времени необходимо прибавить поправку, которая равна 7 ч.
Смотрите также архив погоды в соседних городах и на ближайших метеорологических станциях:
Партнеры нашего сайта:      
Пояснения к столбцам:
  • Ветер - указаны скорость ветра в м/с - средняя за 10 мин, порывы в срок и между сроками (в фигурных скобках) и направление, откуда дует ветер: С - северный,
  • СВ - северо-восточный, В - восточный, ЮВ - юго-восточный, Ю - южный, ЮЗ - юго-западный, З - западный, СЗ - северо-западный.
  • Видимость - горизонтальная дальность видимости в метрах или километрах. При видимости от 1 до 10 км при отсутствии осадков обычно наблюдается дымка, при ухудшении видимости до 1 км и менее - туман. В сухую погоду видимость может ухудшаться дымом, пылью или мглою.
  • Явления - указаны атмосферные явления, наблюдавшиеся в срок или в последний час перед сроком; фигурными скобками обозначены явления, наблюдавшиеся между сроками (за 1-3 часа до срока); квадратными скобками обозначены град или гололедные отложения с указанием их диаметра в мм.
  • Облачность - указаны через наклонную черту общая и нижняя облачность в баллах и высота нижней границы облаков в метрах; квадратными скобками обозначены формы облаков: Ci - перистые, Cs - перисто-слоистые, Cc - перисто-кучевые, Ac - высококучевые, As - высокослоистые, Sc - слоисто-кучевые, Ns - слоисто-дождевые, Cu - кучевые, Cb - кучево-дождевые. Подробнее классификацию облаков см. в Атласе облаков (PDF).
  • T - Температура воздуха - температура, измеренная на высоте 2 м над землей.
  • Td - Температура точки росы - температура, при понижении до которой содержащийся в воздухе водяной пар достигнет насыщения.
  • f - Относительная влажность воздуха - влажноcть воздуха, измеренная на высоте 2 м над землей.
  • Te - Эффективная температура - температура, которую ощущает одетый по сезону человек в тени. Характеристика душности погоды. При расчете учитывается влияние влажности воздуха и скорости ветра на теплоощущения человека.
  • Tes - Эффективная температура на солнце - температура, которую ощущает человек, с поправкой на солнечный нагрев. Характеристика знойности погоды. Зависит от высоты солнца над горизонтом, облачности и скорости ветра. Ночью, в пасмурную погоду, а также при ветре 12 м/с и более поправка равна нулю.
  • P - Атмосферное давление - приведенное к уровню моря атмосферное давление.
  • Po - Атмосферное давление - измеренное на уровне метеостанции атмосферное давление.
  • Tmin - Минимальная температура - минимум температуры воздуха на высоте 2 м над землей.
  • Tmax - Максимальная температура - максимум температуры воздуха на высоте 2 м над землей.
  • R - Количество осадков - Количество выпавших осадков за период времени, мм. При наведении курсора мыши на число - период времени, за который выпало указанное количество осадков.
  • R24 - Количество осадков - Количество выпавших осадков за 24 часа, мм.
  • S - Снежный покров - Высота снежного покрова, см. При наведении курсора мыши на число - состояние снежного покрова и степень покрытия местности в баллах.